Regional Weather Roundup
Issued by NWS

Home | Current Version | Previous Version | Graphics & Text | Print | Product List | Glossary Off
Versions: 1 2 3 4 5 6 7 8 9 10 11 12 13 14 15 16 17 18 19 20 21 22 23 24 25 26 27 28 29 30 31 32 33 34 35 36 37 38 39 40 41 42 43 44 45 46 47 48 49 50

518
ASUS43 KTOP 221808
RWRKS

WEATHER ROUNDUP FOR KANSAS
NATIONAL WEATHER SERVICE GOODLAND KS
1200 PM CST SUN JAN 22 2017

NOTE:  "FAIR" INDICATES FEW OR NO CLOUDS BELOW 12,000 FEET WITH NO
SIGNIFICANT WEATHER AND/OR OBSTRUCTIONS TO VISIBILITY.

KSZ001>006-013>018-027>032-041>047-221900-
NORTHWEST KANSAS

CITY           SKY/WX    TMP DP  RH WIND       PRES   REMARKS
GOODLAND       SUNNY     42  26  53 N20       29.91S
6HR MIN TEMP:  24; 6HR MAX TEMP:  43;

HAYS           SUNNY     47  28  47 NW16      29.86S
HILL CITY      SUNNY     47  28  47 N15       29.88F
6HR MIN TEMP:  30; 6HR MAX TEMP:  47;

RUSSELL        SUNNY     47  27  45 N18       29.84S
6HR MIN TEMP:  31; 6HR MAX TEMP:  47;

$$

KSZ061>065-074>080-084>089-221900-
SOUTHWEST KANSAS

CITY           SKY/WX    TMP DP  RH WIND       PRES   REMARKS
DODGE CITY     SUNNY     47  35  63 NW16G24   29.88S
6HR MIN TEMP:  31; 6HR MAX TEMP:  47;

ELKHART          N/A    N/A N/A N/A MISG        N/A
GARDEN CITY    SUNNY     45  33  63 N18       29.90R
6HR MIN TEMP:  31; 6HR MAX TEMP:  45;

GREAT BEND     SUNNY     46  32  58 N17       29.85S
LIBERAL          N/A     46  36  66 N23       29.91S
PRATT          SUNNY     45  29  53 N17       29.84S
6HR MIN TEMP:  34; 6HR MAX TEMP:  45;

$$

KSZ066>073-081>083-090>101-221900-
SOUTHEAST KANSAS

CITY           SKY/WX    TMP DP  RH WIND       PRES   REMARKS
CHANUTE        PTSUNNY   48  43  82 N17G24    29.68R
6HR MIN TEMP:  47; 6HR MAX TEMP:  49; 6HR PCP:  0.15;

COFFEYVILLE    CLOUDY    49  42  77 N23G33    29.66R
6HR MIN TEMP:  48; 6HR MAX TEMP:  49; 6HR PCP:  0.24;

HUTCHINSON     SUNNY     49  30  48 NW17      29.80R
6HR MIN TEMP:  38; 6HR MAX TEMP:  52;

MEDICINE LODGE   N/A     49  32  52 N20G29    29.80S
NEWTON         SUNNY     46  34  62 N21       29.77F
PARSONS        CLOUDY    49  42  77 N12G25    29.67R
6HR MIN TEMP:  47; 6HR MAX TEMP:  49; 6HR PCP:  0.16;

WICHITA INTL   MOSUNNY   49  34  56 N22       29.77S
6HR MIN TEMP:  41; 6HR MAX TEMP:  49;

WICHITA JABRA  SUNNY     48  36  63 N21       29.76S
6HR MIN TEMP:  42; 6HR MAX TEMP:  48; 6HR PCP: TRACE;

WICHITA MCCONL SUNNY     49  35  58 N16G24    29.75F
WINFIELD       SUNNY     51  38  60 N23       29.75R
6HR MIN TEMP:  46; 6HR MAX TEMP:  51; 6HR PCP:  0.01;

$$

KSZ007>012-019>026-033>040-048>060-102>105-221900-
NORTHEAST KANSAS

CITY           SKY/WX    TMP DP  RH WIND       PRES   REMARKS
CONCORDIA      SUNNY     41  33  73 N17       29.81S
6HR MIN TEMP:  31; 6HR MAX TEMP:  41;

EMPORIA        SUNNY     49  33  54 N15G22    29.72F
6HR MIN TEMP:  43; 6HR MAX TEMP:  49;

LAWRENCE       PTSUNNY   37  33  85 NW21      29.75R FOG     WCI  26
6HR MIN TEMP:  37; 6HR MAX TEMP:  45;

MANHATTAN      SUNNY     44  32  62 N12G21    29.79S
6HR MIN TEMP:  37; 6HR MAX TEMP:  46;

MARYSVILLE     CLOUDY    34  32  93 N14       29.80S WCI  24
OLATHE IND     CLOUDY    43  37  79 NW15      29.71S
6HR MIN TEMP:  43; 6HR MAX TEMP:  45; 6HR PCP: TRACE;

OLATHE EXE     CLOUDY    43  38  82 N14       29.69F
6HR MIN TEMP:  43; 6HR MAX TEMP:  45;

SALINA         SUNNY     46  32  58 N14G25    29.81R
TOPEKA BILLARD CLOUDY    37  32  82 N13       29.77R WCI  29
6HR MIN TEMP:  37; 6HR MAX TEMP:  46;

TOPEKA FORBES  CLOUDY    42  34  73 N16       29.75R
6HR MIN TEMP:  41; 6HR MAX TEMP:  46;

$$




USA.gov is the U.S. government's official web portal to all federal, state and local government web resources and services.